User: anonymous   Login
Location: Caracas
(10.5033°N, 66.8422°W)
Time: 11:35:00
(UTC-04:00)
Language:

Hubble Space Telescope - Orbit

View from above orbital plane
View from above orbital plane
View from above satellite
View from above satellite

Ground track
Ground track

The orbit data is extracted from the following two-line orbital elements,

1 20580U 90037B   17321.74499630 +.00000714 +00000-0 +32972-4 0  9999
2 20580 028.4700 072.7362 0002859 028.3500 095.5942 15.08921073313419
Epoch (UTC): 17 November 2017 17:52:47
Eccentricity: 0.0002859
inclination: 28.4700°
perigee height: 537 km
apogee height: 541 km
right ascension of ascending node: 72.7362°
argument of perigee: 28.3500°
revolutions per day: 15.08921073
mean anomaly at epoch: 95.5942°
orbit number at epoch: 31341

The dashed part of the orbit path shows where the satellite is in the earth's shadow,  

DLR